1491688800.74,57603,10.69,73820.8,-5.79,-6.47,-6.47,0,*5C
1491688801.97,57604,10.69,73822.0,-5.77,-6.43,-6.43,0,*55
1491688803.19,57605,10.63,73818.3,-5.77,-6.47,-6.47,0,*54
1491688804.41,57606,10.63,73816.8,-5.77,-6.47,-6.47,0,*57
1491688805.61,57607,10.63,73820.3,-5.79,-6.47,-6.47,0,*58
1491688806.81,57608,10.63,73814.3,-5.79,-6.43,-6.47,0,*53
1491688808.01,57609,10.69,73820.5,-5.79,-6.43,-6.47,0,*52
1491688809.21,57610,10.69,73822.3,-5.79,-6.47,-6.47,0,*5E
1491688810.41,57611,10.63,73816.8,-5.79,-6.47,-6.47,0,*5F
1491688811.61,57612,10.69,73822.3,-5.79,-6.47,-6.43,0,*58
1491688812.81,57613,10.69,73820.8,-5.79,-6.43,-6.47,0,*59
1491688814.01,57614,10.69,73820.5,-5.79,-6.47,-6.47,0,*5A
1491688815.21,57615,10.69,73824.3,-5.79,-6.47,-6.43,0,*5F
1491688816.41,57616,10.69,73826.8,-5.79,-6.55,-6.43,0,*5F
1491688817.61,57617,10.69,73830.5,-5.79,-6.47,-6.55,0,*5A
1491688818.81,57618,10.63,73826.5,-5.79,-6.47,-6.47,0,*56
1491688820.01,57619,10.69,73822.5,-5.79,-6.43,-6.47,0,*53
1491688821.21,57620,10.63,73818.3,-5.79,-6.47,-6.43,0,*59
1491688822.41,57621,10.69,73820.8,-5.79,-6.43,-6.47,0,*58
1491688823.61,57622,10.63,73822.8,-5.79,-6.43,-6.47,0,*5B
1491688824.81,57623,10.69,73826.0,-5.79,-6.47,-6.47,0,*5E
1491688826.01,57624,10.63,73820.0,-5.79,-6.47,-6.47,0,*59
1491688827.21,57625,10.63,73822.3,-5.79,-6.47,-6.47,0,*58
1491688828.4,57626,10.63,73824.5,-5.79,-6.47,-6.47,0,*5B
1491688829.63,57627,10.69,73824.0,-5.77,-6.47,-6.47,0,*54
1491688830.83,57628,10.69,73824.3,-5.79,-6.47,-6.47,0,*55
1491688832.03,57629,10.69,73824.5,-5.79,-6.47,-6.47,0,*54
1491688833.25,57630,10.69,73824.0,-5.77,-6.47,-6.47,0,*52
1491688834.45,57631,10.63,73830.8,-5.79,-6.47,-6.43,0,*59
1491688835.64,57632,10.63,73832.3,-5.79,-6.47,-6.43,0,*5A
1491688836.85,57633,10.63,73826.8,-5.79,-6.43,-6.43,0,*5F
1491688838.04,57634,10.63,73832.0,-5.79,-6.47,-6.47,0,*58
1491688839.24,57635,10.69,73834.5,-5.79,-6.43,-6.43,0,*59
1491688840.47,57636,10.69,73828.5,-5.77,-6.47,-6.43,0,*50
1491688841.67,57637,10.69,73820.0,-5.83,-6.59,-6.47,0,*51
1491688842.87,57638,10.63,73816.3,-5.79,-6.43,-6.47,0,*50
1491688844.09,57639,10.63,73818.3,-5.77,-6.47,-6.43,0,*5F
1491688845.29,57640,10.63,73818.5,-5.79,-6.55,-6.43,0,*5C
1491688846.49,57641,10.63,73818.0,-5.79,-6.47,-6.43,0,*5E
1491688847.69,57642,10.63,73818.8,-5.79,-6.47,-6.55,0,*5A
1491688848.89,57643,10.63,73812.3,-5.79,-6.47,-6.47,0,*58
1491688850.09,57644,10.69,73816.8,-5.79,-6.43,-6.43,0,*5F
1491688851.29,57645,10.63,73812.5,-5.79,-6.43,-6.43,0,*5E
1491688852.51,57646,10.63,73808.8,-5.77,-6.43,-6.43,0,*53
1491688853.71,57647,10.69,73812.0,-5.79,-6.43,-6.43,0,*5C
1491688854.92,57648,10.69,73804.0,-5.79,-6.43,-6.47,0,*57
1491688856.14,57649,10.69,73814.0,-5.77,-6.43,-6.47,0,*58
1491688857.34,57650,10.63,73804.8,-5.79,-6.47,-6.43,0,*5E
1491688858.54,57651,10.63,73810.0,-5.79,-6.47,-6.47,0,*5B
1491688859.74,57652,10.69,73808.3,-5.79,-6.47,-6.43,0,*5C
1491688860.96,57653,10.69,73806.8,-5.77,-6.47,-6.47,0,*57
1491688862.16,57654,10.63,73804.3,-5.79,-6.43,-6.43,0,*5E
1491688863.36,57655,10.63,73806.0,-5.79,-6.55,-6.47,0,*5C
1491688864.56,57656,10.69,73810.3,-5.79,-6.43,-6.47,0,*58
1491688865.76,57657,10.69,73810.3,-5.79,-6.47,-6.43,0,*59
1491688866.99,57658,10.69,73814.5,-5.77,-6.43,-6.47,0,*58
1491688868.21,57659,10.63,73814.0,-5.77,-6.47,-6.43,0,*59
1491688869.41,57660,10.69,73812.5,-5.79,-6.43,-6.47,0,*5D
1491688870.61,57661,10.69,73820.3,-5.79,-6.47,-6.47,0,*58
1491688871.81,57662,10.69,73822.0,-5.79,-6.47,-6.47,0,*5B
1491688873.0,57663,10.69,73822.8,-5.79,-6.47,-6.43,0,*5E
1491688874.2,57664,10.63,73816.3,-5.79,-6.47,-6.47,0,*5D
1491688875.4,57665,10.63,73818.8,-5.79,-6.47,-6.47,0,*5C
1491688876.6,57666,10.63,73820.0,-5.79,-6.43,-6.47,0,*5B
1491688877.83,57667,10.63,73820.3,-5.77,-6.47,-6.43,0,*54
1491688879.02,57668,10.69,73824.0,-5.83,-6.47,-6.51,0,*53
1491688880.22,57669,10.69,73818.0,-5.79,-6.47,-6.47,0,*50
1491688881.42,57670,10.63,73818.5,-5.79,-6.47,-6.47,0,*58
1491688882.62,57671,10.63,73816.8,-5.79,-6.43,-6.47,0,*5D
1491688883.82,57672,10.69,73820.3,-5.79,-6.47,-6.43,0,*5E
1491688885.02,57673,10.63,73818.0,-5.79,-6.43,-6.47,0,*5F
1491688886.22,57674,10.63,73816.3,-5.79,-6.43,-6.47,0,*58
1491688887.42,57675,10.63,73816.8,-5.79,-6.47,-6.43,0,*59
1491688888.62,57676,10.63,73818.0,-5.79,-6.43,-6.43,0,*5E
1491688889.82,57677,10.63,73812.5,-5.79,-6.47,-6.47,0,*5F
1491688891.05,57678,10.69,73822.3,-5.77,-6.43,-6.47,0,*5A
1491688892.25,57679,10.69,73824.8,-5.79,-6.43,-6.47,0,*55
1491688893.45,57680,10.69,73818.0,-5.79,-6.47,-6.43,0,*53
1491688894.65,57681,10.69,73816.0,-5.79,-6.47,-6.47,0,*56
1491688895.84,57682,10.63,73818.0,-5.79,-6.47,-6.47,0,*55
1491688897.04,57683,10.63,73812.3,-5.79,-6.47,-6.43,0,*50
1491688898.24,57684,10.63,73812.5,-5.79,-6.47,-6.47,0,*53
1491688899.44,57685,10.63,73816.3,-5.79,-6.43,-6.43,0,*52
1491688900.64,57686,10.63,73818.0,-5.83,-6.47,-6.51,0,*53
1491688901.84,57687,10.63,73816.8,-5.79,-6.51,-6.51,0,*50
1491688903.04,57688,10.69,73814.8,-5.79,-6.47,-6.43,0,*5B
1491688904.24,57689,10.63,73812.8,-5.79,-6.47,-6.47,0,*5E
1491688905.44,57690,10.69,73818.0,-5.79,-6.47,-6.43,0,*52
1491688906.64,57691,10.69,73816.8,-5.79,-6.47,-6.47,0,*57
1491688907.84,57692,10.69,73816.0,-5.79,-6.47,-6.43,0,*50
1491688909.04,57693,10.63,73812.3,-5.79,-6.43,-6.43,0,*55
1491688910.24,57694,10.69,73820.8,-5.79,-6.47,-6.47,0,*52
1491688911.46,57695,10.69,73818.0,-5.77,-6.47,-6.47,0,*5D
1491688912.66,57696,10.63,73816.5,-5.79,-6.43,-6.47,0,*54
1491688913.86,57697,10.69,73818.8,-5.79,-6.43,-6.43,0,*51
1491688915.06,57698,10.63,73814.8,-5.79,-6.43,-6.43,0,*5E
1491688916.29,57699,10.63,73814.5,-5.77,-6.47,-6.47,0,*51
1491688917.49,57700,10.69,73818.5,-5.79,-6.43,-6.43,0,*5E
1491688918.69,57701,10.69,73820.5,-5.79,-6.47,-6.47,0,*5F
1491688919.91,57702,10.69,73818.5,-5.77,-6.47,-6.43,0,*56
1491688921.11,57703,10.63,73812.0,-5.79,-6.47,-6.43,0,*59
1491688922.31,57704,10.69,73818.8,-5.79,-6.43,-6.47,0,*5E
1491688923.51,57705,10.69,73814.8,-5.79,-6.43,-6.47,0,*5F
1491688924.71,57706,10.63,73812.5,-5.79,-6.43,-6.43,0,*58
1491688925.91,57707,10.63,73818.5,-5.79,-6.47,-6.43,0,*5D
1491688927.11,57708,10.63,73818.8,-5.79,-6.43,-6.43,0,*56
1491688928.31,57709,10.69,73818.8,-5.79,-6.47,-6.43,0,*53
1491688929.51,57710,10.69,73816.0,-5.79,-6.43,-6.47,0,*5B
1491688930.73,57711,10.63,73818.0,-5.77,-6.43,-6.43,0,*50
1491688931.96,57712,10.69,73816.3,-5.77,-6.47,-6.43,0,*57
1491688933.16,57713,10.63,73820.0,-5.79,-6.43,-6.43,0,*5C
1491688934.36,57714,10.63,73820.5,-5.79,-6.43,-6.43,0,*5B
1491688935.56,57715,10.69,73822.0,-5.79,-6.47,-6.47,0,*5A
1491688936.75,57716,10.69,73820.3,-5.79,-6.47,-6.43,0,*5D
1491688937.96,57717,10.63,73820.8,-5.79,-6.43,-6.43,0,*58
1491688939.18,57718,10.63,73820.3,-5.77,-6.47,-6.43,0,*5D
1491688940.38,57719,10.63,73820.0,-5.79,-6.47,-6.43,0,*52
1491688941.57,57720,10.69,73824.3,-5.79,-6.47,-6.43,0,*58
1491688942.77,57721,10.63,73820.0,-5.79,-6.47,-6.47,0,*5D
1491688943.97,57722,10.69,73822.5,-5.79,-6.43,-6.43,0,*5E
1491688945.18,57723,10.69,73824.5,-5.79,-6.43,-6.35,0,*5E
1491688946.38,57724,10.69,73828.3,-5.79,-6.47,-6.47,0,*58
1491688947.57,57725,10.63,73824.0,-5.79,-6.47,-6.43,0,*5D
1491688948.8,57726,10.63,73818.8,-5.77,-6.43,-6.43,0,*54
1491688950.02,57727,10.69,73820.3,-5.77,-6.43,-6.47,0,*51
1491688951.22,57728,10.69,73820.0,-5.79,-6.43,-6.43,0,*54
1491688952.42,57729,10.63,73822.3,-5.79,-6.43,-6.43,0,*55
1491688953.65,57730,10.63,73816.8,-5.77,-6.43,-6.47,0,*57
1491688954.85,57731,10.63,73818.5,-5.79,-6.47,-6.43,0,*58
1491688956.07,57732,10.69,73822.8,-5.77,-6.47,-6.47,0,*51
1491688957.27,57733,10.63,73816.8,-5.79,-6.47,-6.43,0,*5A
1491688958.47,57734,10.69,73822.8,-5.79,-6.43,-6.47,0,*5D
1491688959.67,57735,10.63,73826.0,-5.79,-6.43,-6.43,0,*58
1491688960.89,57736,10.63,73824.3,-5.77,-6.43,-6.47,0,*51
1491688962.1,57737,10.69,73824.0,-5.79,-6.43,-6.43,0,*5A
1491688963.3,57738,10.63,73820.5,-5.79,-6.43,-6.47,0,*51
1491688964.5,57739,10.63,73822.8,-5.83,-6.51,-6.51,0,*51
1491688965.7,57740,10.69,73822.5,-5.79,-6.47,-6.43,0,*5E
1491688966.9,57741,10.63,73816.0,-5.79,-6.43,-6.43,0,*5B
1491688968.12,57742,10.69,73822.0,-5.77,-6.47,-6.47,0,*56
1491688969.35,57743,10.63,73812.8,-5.77,-6.43,-6.47,0,*53
1491688970.54,57744,10.63,73810.8,-5.79,-6.47,-6.43,0,*5A
1491688971.75,57745,10.69,73810.5,-5.79,-6.43,-6.43,0,*5F
1491688972.97,57746,10.69,73822.5,-5.77,-6.43,-6.47,0,*56
1491688974.17,57747,10.69,73820.0,-5.79,-6.43,-6.43,0,*5D
1491688975.37,57748,10.69,73820.5,-5.79,-6.47,-6.43,0,*56
1491688976.57,57749,10.63,73820.5,-5.79,-6.47,-6.43,0,*57
1491688977.77,57750,10.69,73822.8,-5.79,-6.47,-6.43,0,*5F
1491688978.99,57751,10.69,73824.0,-5.77,-6.43,-6.43,0,*54
1491688980.19,57752,10.63,73818.0,-5.79,-6.47,-6.43,0,*5D
1491688981.41,57753,10.63,73820.3,-5.77,-6.43,-6.43,0,*56
1491688982.61,57754,10.69,73822.5,-5.79,-6.47,-6.43,0,*5B
1491688983.81,57755,10.63,73824.0,-5.79,-6.43,-6.47,0,*5A
1491688985.02,57756,10.69,73824.3,-5.79,-6.43,-6.43,0,*5D
1491688986.21,57757,10.69,73826.0,-5.79,-6.47,-6.43,0,*58
1491688987.44,57758,10.69,73826.0,-5.77,-6.43,-6.47,0,*59
1491688988.64,57759,10.63,73818.8,-5.79,-6.47,-6.43,0,*56
1491688989.84,57760,10.69,73818.0,-5.79,-6.43,-6.47,0,*5C
1491688991.04,57761,10.63,73818.3,-5.79,-6.43,-6.43,0,*59
1491688992.24,57762,10.63,73820.3,-5.79,-6.43,-6.43,0,*5A
1491688993.44,57763,10.63,73824.5,-5.79,-6.43,-6.43,0,*5B
1491688994.67,57764,10.69,73826.5,-5.77,-6.43,-6.47,0,*56
1491688995.89,57765,10.63,73822.8,-5.77,-6.43,-6.43,0,*53
1491688997.09,57766,10.63,73818.0,-5.79,-6.43,-6.47,0,*5A
1491688998.32,57767,10.69,73822.8,-5.77,-6.43,-6.47,0,*55
1491688999.52,57768,10.63,73816.5,-5.79,-6.43,-6.47,0,*54
1491689000.72,57769,10.69,73816.8,-5.79,-6.43,-6.43,0,*51
1491689001.94,57770,10.69,73822.3,-5.77,-6.43,-6.47,0,*53
1491689003.14,57771,10.63,73822.5,-5.79,-6.43,-6.47,0,*5C
1491689004.34,57772,10.69,73824.3,-5.79,-6.43,-6.43,0,*5B
1491689005.54,57773,10.69,73824.8,-5.79,-6.47,-6.43,0,*5E
1491689006.74,57774,10.63,73816.0,-5.79,-6.43,-6.43,0,*5D
1491689007.97,57775,10.63,73818.8,-5.77,-6.47,-6.43,0,*56
1491689009.16,57776,10.63,73818.0,-5.79,-6.47,-6.47,0,*5F
1491689010.36,57777,10.69,73822.8,-5.79,-6.47,-6.43,0,*5A
1491689011.56,57778,10.63,73826.0,-5.79,-6.43,-6.47,0,*55
1491689012.79,57779,10.69,73828.3,-5.77,-6.47,-6.47,0,*5E
1491689013.99,57780,10.69,73826.8,-5.79,-6.43,-6.47,0,*52
1491689015.19,57781,10.63,73818.5,-5.79,-6.47,-6.43,0,*53
1491689016.41,57782,10.69,73824.0,-5.77,-6.47,-6.47,0,*5A
1491689017.63,57783,10.63,73822.8,-5.77,-6.43,-6.47,0,*5F
1491689018.86,57784,10.63,73820.8,-5.77,-6.47,-6.43,0,*58
1491689020.05,57785,10.63,73812.3,-5.79,-6.47,-6.43,0,*57
1491689021.28,57786,10.63,73812.0,-5.77,-6.47,-6.43,0,*5A
1491689022.5,57787,10.69,73812.8,-5.77,-6.43,-6.47,0,*5B
1491689023.7,57788,10.69,73812.8,-5.79,-6.43,-6.43,0,*5E
1491689024.93,57789,10.63,73812.5,-5.77,-6.43,-6.43,0,*51
1491689026.13,57790,10.63,73816.0,-5.79,-6.43,-6.43,0,*57
1491689027.33,57791,10.63,73814.0,-5.79,-6.43,-6.43,0,*56
1491689028.53,57792,10.69,73814.5,-5.79,-6.43,-6.43,0,*55
1491689029.75,57793,10.69,73816.0,-5.77,-6.47,-6.47,0,*5A
1491689030.95,57794,10.63,73818.3,-5.79,-6.43,-6.43,0,*53
1491689032.15,57795,10.63,73814.8,-5.79,-6.47,-6.47,0,*52
1491689033.35,57796,10.69,73822.3,-5.79,-6.43,-6.47,0,*55
1491689034.55,57797,10.69,73820.8,-5.79,-6.43,-6.47,0,*54
1491689035.78,57798,10.63,73820.5,-5.77,-6.47,-6.43,0,*55
1491689036.97,57799,10.63,73820.5,-5.79,-6.47,-6.47,0,*5E
1491689038.17,57800,10.63,73824.0,-5.79,-6.43,-6.47,0,*55
1491689039.4,57801,10.63,73822.0,-5.77,-6.43,-6.43,0,*5E
1491689040.6,57802,10.63,73822.3,-5.79,-6.47,-6.47,0,*53
1491689041.82,57803,10.63,73824.0,-5.77,-6.43,-6.47,0,*58
1491689043.02,57804,10.63,73824.0,-5.79,-6.43,-6.43,0,*55
1491689044.23,57805,10.63,73820.3,-5.79,-6.43,-6.47,0,*50
1491689045.42,57806,10.63,73824.8,-5.79,-6.47,-6.47,0,*57
1491689046.65,57807,10.63,73826.5,-5.77,-6.47,-6.47,0,*58
1491689047.84,57808,10.63,73824.3,-5.79,-6.47,-6.43,0,*5D
1491689049.07,57809,10.63,73824.8,-5.77,-6.47,-6.47,0,*56
1491689050.29,57810,10.63,73824.3,-5.77,-6.43,-6.47,0,*5A
1491689051.49,57811,10.63,73820.3,-5.79,-6.47,-6.43,0,*55
1491689052.71,57812,10.69,73820.5,-5.77,-6.47,-6.47,0,*5C
1491689053.94,57813,10.69,73824.3,-5.77,-6.43,-6.47,0,*59
1491689055.14,57814,10.63,73820.5,-5.79,-6.43,-6.47,0,*50
1491689056.36,57815,10.63,73828.5,-5.77,-6.47,-6.47,0,*5B
1491689057.58,57816,10.63,73822.8,-5.77,-6.47,-6.47,0,*58
1491689058.78,57817,10.63,73822.5,-5.79,-6.47,-6.47,0,*57
1491689059.98,57818,10.69,73818.8,-5.79,-6.43,-6.43,0,*58
1491689061.18,57819,10.69,73826.8,-5.79,-6.47,-6.47,0,*59
1491689062.38,57820,10.63,73822.3,-5.79,-6.47,-6.43,0,*57
1491689063.58,57821,10.63,73824.3,-5.79,-6.43,-6.47,0,*56
1491689064.78,57822,10.63,73822.5,-5.79,-6.47,-6.43,0,*55
1491689065.98,57823,10.69,73822.0,-5.79,-6.55,-6.47,0,*53
1491689067.18,57824,10.63,73824.0,-5.79,-6.55,-6.47,0,*54
1491689068.38,57825,10.69,73824.5,-5.79,-6.47,-6.47,0,*56
1491689069.58,57826,10.63,73820.0,-5.79,-6.55,-6.47,0,*56
1491689070.79,57827,10.63,73820.3,-5.79,-6.43,-6.47,0,*50
1491689071.98,57828,10.63,73822.0,-5.79,-6.47,-6.43,0,*5F
1491689073.29,57829,10.63,73820.3,-5.79,-6.55,-6.43,0,*5D
1491689074.41,57830,10.63,73820.0,-5.77,-6.47,-6.47,0,*5C
1491689075.61,57831,10.63,73824.3,-5.79,-6.47,-6.43,0,*57
1491689076.8,57832,10.63,73820.0,-5.79,-6.47,-6.47,0,*50
1491689078.0,57833,10.63,73820.0,-5.79,-6.47,-6.47,0,*51
1491689079.2,57834,10.63,73822.8,-5.79,-6.47,-6.47,0,*56
1491689080.4,57835,10.63,73826.8,-5.79,-6.47,-6.47,0,*57
1491689081.6,57836,10.63,73830.3,-5.79,-6.47,-6.55,0,*57
1491689082.8,57837,10.69,73826.0,-5.79,-6.47,-6.55,0,*56
1491689084.0,57838,10.63,73820.3,-5.79,-6.55,-6.55,0,*5A
1491689085.22,57839,10.63,73830.0,-5.77,-6.55,-6.47,0,*56
1491689086.42,57840,10.63,73826.0,-5.79,-6.55,-6.55,0,*55
1491689087.65,57841,10.63,73824.0,-5.77,-6.55,-6.55,0,*5A
1491689088.85,57842,10.63,73828.5,-5.79,-6.55,-6.55,0,*57
1491689090.05,57843,10.63,73830.0,-5.79,-6.59,-6.55,0,*5A
1491689091.25,57844,10.63,73830.8,-5.79,-6.47,-6.55,0,*52
1491689092.45,57845,10.63,73834.5,-5.79,-6.55,-6.55,0,*50
1491689093.65,57846,10.63,73832.3,-5.79,-6.55,-6.55,0,*53
1491689094.85,57847,10.69,73832.3,-5.79,-6.59,-6.55,0,*5E
1491689096.08,57848,10.63,73830.5,-5.77,-6.59,-6.59,0,*53
1491689097.28,57849,10.63,73830.8,-5.79,-6.59,-6.55,0,*50
1491689098.48,57850,10.63,73830.8,-5.79,-6.47,-6.55,0,*57
1491689099.68,57851,10.63,73828.5,-5.79,-6.47,-6.55,0,*56
1491689100.87,57852,10.63,73828.5,-5.79,-6.47,-6.55,0,*55
1491689102.08,57853,10.63,73822.0,-5.83,-6.51,-6.59,0,*5A
1491689103.28,57854,10.63,73822.0,-5.83,-6.51,-6.59,0,*5D
1491689104.48,57855,10.63,73820.3,-5.79,-6.55,-6.55,0,*51
1491689105.68,57856,10.63,73822.5,-5.79,-6.55,-6.55,0,*52
1491689106.88,57857,10.63,73820.5,-5.79,-6.47,-6.59,0,*5C
1491689108.08,57858,10.63,73818.8,-5.79,-6.47,-6.55,0,*5F
1491689109.28,57859,10.63,73824.8,-5.83,-6.59,-6.59,0,*58
1491689110.48,57860,10.63,73828.8,-5.79,-6.55,-6.55,0,*57
1491689111.68,57861,10.63,73824.0,-5.79,-6.59,-6.59,0,*56
1491689112.88,57862,10.63,73818.8,-5.79,-6.55,-6.55,0,*55
1491689114.08,57863,10.63,73822.5,-5.79,-6.55,-6.55,0,*54
1491689115.28,57864,10.63,73822.0,-5.83,-6.59,-6.51,0,*5E
1491689116.48,57865,10.63,73820.0,-5.83,-6.59,-6.51,0,*5F
1491689117.72,57866,10.63,73818.5,-5.83,-6.63,-6.63,0,*54
1491689118.92,57867,10.63,73818.8,-5.83,-6.59,-6.59,0,*55
1491689120.14,57868,10.69,73820.5,-5.85,-6.59,-6.59,0,*5C
1491689121.34,57869,10.63,73822.3,-5.83,-6.59,-6.59,0,*5B
1491689122.54,57870,10.63,73816.5,-5.79,-6.55,-6.59,0,*5A
1491689123.76,57871,10.63,73818.0,-5.83,-6.63,-6.51,0,*53
1491689124.96,57872,10.63,73816.5,-5.79,-6.55,-6.59,0,*58
1491689126.16,57873,10.63,73818.8,-5.79,-6.55,-6.55,0,*55
1491689127.36,57874,10.63,73820.3,-5.83,-6.59,-6.59,0,*57
1491689128.56,57875,10.69,73820.8,-5.83,-6.59,-6.59,0,*56
1491689129.78,57876,10.63,73820.5,-5.83,-6.63,-6.59,0,*5C
1491689130.99,57877,10.63,73816.8,-5.83,-6.63,-6.59,0,*5D
1491689132.21,57878,10.63,73810.0,-5.83,-6.63,-6.59,0,*52
1491689133.41,57879,10.63,73810.3,-5.83,-6.59,-6.59,0,*5A
1491689134.61,57880,10.63,73804.8,-5.83,-6.59,-6.59,0,*5C
1491689135.8,57881,10.63,73804.0,-5.83,-6.59,-6.59,0,*5D
1491689137.02,57882,10.63,73820.5,-5.83,-6.63,-6.59,0,*57
1491689138.22,57883,10.63,73830.8,-5.79,-6.55,-6.47,0,*59
1491689139.42,57884,10.63,73822.3,-5.83,-6.59,-6.59,0,*58
1491689140.62,57885,10.63,73810.5,-5.83,-6.51,-6.59,0,*51
1491689141.85,57886,10.63,73806.5,-5.85,-6.59,-6.59,0,*5C
1491689143.04,57887,10.63,73810.8,-5.83,-6.59,-6.59,0,*5B
1491689144.27,57888,10.63,73810.3,-5.83,-6.59,-6.63,0,*5D
1491689145.49,57889,10.63,73812.3,-5.85,-6.59,-6.59,0,*53
1491689146.71,57890,10.63,73812.3,-5.83,-6.59,-6.63,0,*54
1491689147.93,57891,10.63,73810.5,-5.83,-6.63,-6.59,0,*55
1491689149.13,57892,10.63,73814.8,-5.79,-6.55,-6.55,0,*5A
1491689150.33,57893,10.69,73816.8,-5.79,-6.47,-6.59,0,*54
1491689151.53,57894,10.63,73814.0,-5.79,-6.55,-6.55,0,*5C
1491689152.73,57895,10.63,73820.5,-5.79,-6.55,-6.55,0,*5D
1491689153.93,57896,10.63,73818.0,-5.79,-6.55,-6.55,0,*5E
1491689155.13,57897,10.63,73816.3,-5.79,-6.55,-6.55,0,*5F
1491689156.33,57898,10.63,73820.5,-5.79,-6.47,-6.55,0,*53
1491689157.53,57899,10.63,73818.3,-5.83,-6.51,-6.59,0,*5C
1491689158.73,57900,10.63,73822.8,-5.83,-6.59,-6.59,0,*55
1491689159.93,57901,10.63,73820.3,-5.83,-6.59,-6.59,0,*54
1491689161.13,57902,10.63,73824.0,-5.83,-6.59,-6.59,0,*57
1491689162.33,57903,10.69,73830.0,-5.83,-6.59,-6.59,0,*56
1491689163.55,57904,10.63,73822.0,-5.85,-6.59,-6.59,0,*57
1491689164.75,57905,10.63,73824.0,-5.83,-6.59,-6.59,0,*50
1491689165.95,57906,10.63,73824.0,-5.83,-6.59,-6.59,0,*53
1491689167.15,57907,10.63,73826.0,-5.83,-6.51,-6.59,0,*5A
1491689168.37,57908,10.63,73828.0,-5.85,-6.51,-6.59,0,*53
1491689169.58,57909,10.63,73824.0,-5.83,-6.51,-6.59,0,*54
1491689170.78,57910,10.63,73818.3,-5.83,-6.51,-6.59,0,*5C
1491689171.98,57911,10.63,73822.0,-5.83,-6.59,-6.59,0,*55
1491689173.18,57912,10.63,73820.0,-5.83,-6.59,-6.51,0,*5E
1491689174.37,57913,10.63,73822.5,-5.83,-6.47,-6.47,0,*57
1491689175.57,57914,10.63,73822.5,-5.83,-6.59,-6.59,0,*50
1491689176.79,57915,10.63,73826.5,-5.85,-6.59,-6.51,0,*5F
1491689177.99,57916,10.63,73820.5,-5.83,-6.59,-6.51,0,*5A
1491689179.19,57917,10.63,73820.5,-5.83,-6.59,-6.59,0,*53
1491689180.39,57918,10.63,73818.5,-5.83,-6.51,-6.59,0,*54
1491689181.59,57919,10.63,73820.3,-5.83,-6.47,-6.51,0,*5A
1491689182.79,57920,10.63,73816.8,-5.83,-6.59,-6.59,0,*57
1491689183.99,57921,10.63,73818.5,-5.83,-6.59,-6.59,0,*56
1491689185.19,57922,10.63,73812.3,-5.83,-6.59,-6.59,0,*55
1491689186.41,57923,10.63,73816.5,-5.85,-6.51,-6.59,0,*5A
1491689187.61,57924,10.63,73820.5,-5.83,-6.59,-6.51,0,*5B
1491689188.81,57925,10.63,73820.3,-5.83,-6.51,-6.59,0,*5A
1491689190.01,57926,10.63,73814.8,-5.83,-6.51,-6.59,0,*59
1491689191.21,57927,10.63,73816.3,-5.83,-6.59,-6.59,0,*50
1491689192.41,57928,10.63,73826.5,-5.83,-6.59,-6.59,0,*5F
1491689193.61,57929,10.63,73826.3,-5.83,-6.59,-6.51,0,*56
1491689194.81,57930,10.63,73832.5,-5.83,-6.51,-6.59,0,*5E
1491689196.04,57931,10.63,73824.3,-5.83,-6.51,-6.63,0,*56
1491689197.26,57932,10.63,73824.8,-5.85,-6.51,-6.51,0,*52
1491689198.49,57933,10.63,73824.5,-5.83,-6.51,-6.63,0,*54
1491689199.71,57934,10.63,73818.3,-5.83,-6.63,-6.59,0,*5B
1491689200.9,57935,10.63,73820.8,-5.83,-6.47,-6.51,0,*54
1491689202.1,57936,10.63,73820.5,-5.83,-6.59,-6.47,0,*5F
1491689203.33,57937,10.63,73822.3,-5.85,-6.51,-6.59,0,*5F
1491689204.53,57938,10.63,73824.3,-5.83,-6.51,-6.51,0,*5E
1491689205.73,57939,10.63,73820.8,-5.83,-6.59,-6.51,0,*57
1491689206.95,57940,10.63,73824.3,-5.85,-6.59,-6.59,0,*57
1491689208.17,57941,10.63,73822.3,-5.85,-6.59,-6.59,0,*56
1491689209.37,57942,10.63,73824.5,-5.83,-6.59,-6.59,0,*53
1491689210.57,57943,10.63,73824.8,-5.83,-6.59,-6.59,0,*52
1491689211.79,57944,10.63,73826.5,-5.85,-6.59,-6.59,0,*53
1491689212.99,57945,10.63,73826.3,-5.83,-6.59,-6.59,0,*54
1491689214.21,57946,10.63,73826.8,-5.85,-6.59,-6.59,0,*51
1491689215.41,57947,10.63,73828.8,-5.83,-6.51,-6.59,0,*5E
1491689216.61,57948,10.63,73818.8,-5.83,-6.59,-6.59,0,*59
1491689217.84,57949,10.63,73818.5,-5.85,-6.59,-6.59,0,*5E
1491689219.05,57950,10.63,73820.8,-5.83,-6.63,-6.59,0,*59
1491689220.25,57951,10.63,73820.3,-5.83,-6.51,-6.59,0,*59
1491689221.46,57952,10.63,73818.8,-5.83,-6.51,-6.59,0,*5A
1491689222.68,57953,10.63,73820.3,-5.85,-6.51,-6.59,0,*5D
1491689223.91,57954,10.63,73822.0,-5.85,-6.51,-6.59,0,*5A
1491689225.11,57955,10.63,73818.5,-5.83,-6.59,-6.59,0,*55
1491689226.31,57956,10.63,73820.5,-5.83,-6.59,-6.51,0,*5E
1491689227.53,57957,10.63,73826.3,-5.85,-6.59,-6.59,0,*51
1491689228.73,57958,10.63,73834.3,-5.83,-6.59,-6.59,0,*58
1491689229.93,57959,10.63,73830.8,-5.83,-6.51,-6.51,0,*59
1491689231.16,57960,10.63,73812.0,-5.85,-6.51,-6.51,0,*55
1491689232.38,57961,10.63,73816.5,-5.83,-6.59,-6.63,0,*5B
1491689233.6,57962,10.63,73816.5,-5.85,-6.59,-6.59,0,*57
1491689234.82,57963,10.63,73818.3,-5.85,-6.59,-6.59,0,*56
1491689236.02,57964,10.63,73820.3,-5.83,-6.59,-6.59,0,*57
1491689237.22,57965,10.63,73824.8,-5.83,-6.59,-6.59,0,*56
1491689238.44,57966,10.63,73816.8,-5.85,-6.59,-6.59,0,*53
1491689239.64,57967,10.63,73816.3,-5.83,-6.59,-6.59,0,*54
1491689240.86,57968,10.63,73812.3,-5.85,-6.59,-6.51,0,*55
1491689242.1,57969,10.63,73808.5,-5.83,-6.63,-6.63,0,*5A
1491689243.3,57970,10.63,73814.0,-5.83,-6.59,-6.59,0,*52
1491689244.53,57971,10.63,73812.5,-5.85,-6.59,-6.47,0,*5A
1491689245.74,57972,10.63,73814.3,-5.83,-6.63,-6.51,0,*51
1491689246.98,57973,10.63,73822.0,-5.85,-6.63,-6.51,0,*56
1491689248.21,57974,10.63,73822.5,-5.85,-6.59,-6.51,0,*58
1491689249.41,57975,10.63,73816.3,-5.83,-6.59,-6.51,0,*5F
1491689250.63,57976,10.63,73808.8,-5.85,-6.59,-6.59,0,*52
1491689251.85,57977,10.63,73808.8,-5.85,-6.59,-6.59,0,*53
1491689253.05,57978,10.63,73810.5,-5.83,-6.51,-6.59,0,*52
1491689254.28,57979,10.63,73812.5,-5.85,-6.51,-6.51,0,*5D
1491689255.49,57980,10.63,73812.3,-5.83,-6.63,-6.59,0,*54
1491689256.72,57981,10.63,73818.5,-5.85,-6.59,-6.59,0,*5A
1491689257.94,57982,10.63,73816.8,-5.85,-6.59,-6.51,0,*51
1491689259.16,57983,10.63,73820.8,-5.85,-6.59,-6.59,0,*58
1491689260.38,57984,10.63,73816.8,-5.85,-6.59,-6.59,0,*5F
1491689261.61,57985,10.63,73812.5,-5.85,-6.59,-6.59,0,*5E
1491689262.83,57986,10.63,73818.5,-5.85,-6.51,-6.59,0,*55
1491689264.06,57987,10.63,73816.0,-5.85,-6.51,-6.59,0,*54
1491689265.26,57988,10.63,73810.5,-5.83,-6.59,-6.59,0,*55
1491689266.48,57989,10.63,73818.3,-5.85,-6.59,-6.51,0,*5A
1491689267.72,57990,10.63,73818.8,-5.85,-6.63,-6.59,0,*53
1491689268.94,57991,10.63,73812.8,-5.85,-6.59,-6.59,0,*5B
1491689270.16,57992,10.63,73818.8,-5.83,-6.59,-6.63,0,*57
1491689271.39,57993,10.63,73824.0,-5.83,-6.51,-6.63,0,*5E
1491689272.59,57994,10.63,73826.3,-5.83,-6.59,-6.59,0,*58
1491689273.84,57995,10.63,73830.3,-5.85,-6.59,-6.63,0,*56
1491689275.08,57996,10.63,73826.3,-5.85,-6.63,-6.59,0,*55
1491689276.27,57997,10.63,73826.0,-5.83,-6.59,-6.59,0,*5B
1491689277.52,57998,10.63,73828.3,-5.85,-6.59,-6.63,0,*5B
1491689278.77,57999,10.63,73828.0,-5.85,-6.59,-6.63,0,*5A
1491689279.99,58000,10.63,73824.8,-5.85,-6.59,-6.59,0,*55
1491689281.21,58001,10.63,73822.0,-5.85,-6.59,-6.59,0,*54
1491689282.45,58002,10.63,73822.3,-5.85,-6.63,-6.59,0,*5E
1491689283.7,58003,10.63,73830.3,-5.85,-6.59,-6.63,0,*5F
1491689284.94,58004,10.63,73828.0,-5.83,-6.63,-6.63,0,*57
1491689286.16,58005,10.63,73826.3,-5.85,-6.59,-6.59,0,*50
1491689287.38,58006,10.63,73820.3,-5.85,-6.59,-6.59,0,*53
1491689288.63,58007,10.63,73824.5,-5.85,-6.51,-6.63,0,*53
1491689289.87,58008,10.63,73828.5,-5.85,-6.63,-6.59,0,*54
1491689291.11,58009,10.63,73828.5,-5.85,-6.63,-6.59,0,*55
1491689292.34,58010,10.63,73828.3,-5.85,-6.59,-6.59,0,*54
1491689293.56,58011,10.69,73830.0,-5.83,-6.59,-6.63,0,*5A
1491689294.8,58012,10.63,73818.5,-5.85,-6.63,-6.59,0,*5F
1491689296.02,58013,10.63,73818.3,-5.85,-6.59,-6.59,0,*57
1491689297.27,58014,10.63,73822.0,-5.85,-6.59,-6.63,0,*59
1491689298.49,58015,10.63,73822.8,-5.85,-6.59,-6.59,0,*51
1491689299.73,58016,10.63,73826.5,-5.85,-6.63,-6.59,0,*5B